Content
SEND FEEDBACK

Daily
Averages
Monthly
Summary
United States of America

ODIN, ILLINOIS


Home > North America > United States > Illinois
Elevation: 533 feet     Latitude: 38 37N     Longitude: 088 56W

WEATHER
 
SELECT A DAY
Number of Records: 330,106;   Date Range: 7/17/01 - 9/30/14
 
SHARE

PRINT THIS DATA

[ ← Previous Day ]
WEATHER ALMANAC - JANUARY 23, 2013
[ Next Day → ]
[ °C ]   °F
Weather ElementAverageHighLow
Temperature27.7 °F39.2 °F (3:15 pm)16.7 °F (3:15 am)
Dewpoint19 °F26.8 °F (5:15 pm)12.9 °F (6:55 am)
Humidity71.2 %90 % (3:35 am)51 % (11:15 am)
Barometer30.26 in30.38 in (12:35 am)30.14 in (4:35 pm)
Wind Speed5.9 mph19.6 mph (11:55 pm)
Wind Gust24.2 mph (11:15 pm)
Weather ElementAverage
Visibility10 mi
Wind DirectionSSE (173.7 °)

Weather ElementTotal
Precipitation---
Heating Degree Days37.1 (Base 65)
Averaged from 71 records on January 23, 2013
WEATHER CONDITIONS BREAKOUT
WIND DIRECTION BREAKOUT
WEATHER BY HOUR - JANUARY 23, 2013
[ °C ]   °F
Local TimeTemperatureDewpointHumidityBarometerVisibilityWind DirectionWind SpeedGust SpeedPrecipitationEventsConditions
12:35 AM19.9 °F15.1 °F81 %30.38 in10.0 miCalmOvercast
12:55 AM19.4 °F14.9 °F83 %30.38 in10.0 miCalmOvercast
1:15 AM19.2 °F14.4 °F81 %30.37 in10.0 miCalmMostly Cloudy
1:35 AM18.5 °F14.5 °F85 %30.37 in10.0 miCalmClear
1:55 AM18.0 °F14.7 °F87 %30.37 in10.0 miCalmClear
2:15 AM17.4 °F14.0 °F86 %30.37 in10.0 miCalmClear
2:35 AM17.4 °F14.2 °F87 %30.37 in10.0 miCalmClear
2:55 AM17.4 °F14.7 °F89 %30.37 in10.0 miCalmClear
3:15 AM16.7 °F14.0 °F89 %30.36 in10.0 miCalmClear
3:35 AM16.7 °F14.2 °F90 %30.35 in10.0 miSSE (150°)3.5 mphClear
3:55 AM17.6 °F14.0 °F86 %30.33 in10.0 miSSE (150°)3.5 mphClear
4:15 AM17.6 °F14.0 °F86 %30.33 in10.0 miCalmClear
4:35 AM17.6 °F13.6 °F84 %30.33 in10.0 miCalmClear
4:55 AM17.2 °F13.6 °F86 %30.33 in10.0 miSSE (150°)3.5 mphClear
5:15 AM17.2 °F13.6 °F86 %30.33 in10.0 miCalmClear
5:35 AM17.2 °F13.6 °F86 %30.32 in10.0 miCalmClear
5:55 AM17.2 °F13.1 °F84 %30.33 in10.0 miCalmClear
6:15 AM17.1 °F13.1 °F84 %30.33 in10.0 miCalmClear
6:35 AM16.7 °F13.1 °F86 %30.33 in10.0 miCalmClear
6:55 AM16.7 °F12.9 °F85 %30.33 in10.0 miCalmClear
7:15 AM16.7 °F13.1 °F86 %30.33 in10.0 miCalmClear
7:35 AM17.1 °F13.1 °F84 %30.32 in10.0 miSE (130°)4.6 mphClear
7:55 AM18.5 °F14.0 °F83 %30.32 in10.0 miSE (130°)3.5 mphClear
8:15 AM19.2 °F13.8 °F80 %30.33 in10.0 miSE (140°)4.6 mphClear
8:35 AM19.8 °F13.8 °F78 %30.32 in10.0 miSE (140°)4.6 mphClear
8:55 AM21.0 °F14.0 °F74 %30.32 in10.0 miSSE (160°)5.8 mphClear
9:15 AM22.6 °F15.1 °F73 %30.31 in10.0 miSSE (160°)5.8 mphClear
9:35 AM24.1 °F15.6 °F70 %30.30 in10.0 miSouth (170°)6.9 mphClear
9:55 AM26.1 °F15.4 °F64 %30.30 in10.0 miSouth (170°)8.1 mphClear
10:15 AM28.2 °F15.8 °F60 %30.30 in10.0 miSouth (190°)6.9 mphClear
10:35 AM30.2 °F15.8 °F55 %30.29 in10.0 miSouth (180°)8.1 mphClear
10:55 AM30.9 °F15.3 °F52 %30.28 in10.0 miSouth (170°)5.8 mphClear
11:15 AM31.8 °F15.4 °F51 %30.26 in10.0 miSouth (190°)6.9 mphClear
11:35 AM32.2 °F16.2 °F52 %30.25 in10.0 miSSW (200°)10.4 mphClear
11:55 AM33.1 °F16.9 °F51 %30.23 in10.0 miSSW (210°)8.1 mphClear
12:15 PM33.8 °F18.1 °F53 %30.22 in10.0 miSW (230°)11.5 mphClear
12:35 PM34.7 °F19.4 °F54 %30.21 in10.0 miSW (230°)9.2 mphClear
12:55 PM35.2 °F20.3 °F55 %30.20 in10.0 miSW (220°)9.2 mphClear
1:15 PM35.6 °F20.3 °F54 %30.19 in10.0 miWSW (240°)4.6 mphClear
1:35 PM36.3 °F20.7 °F53 %30.17 in10.0 miWSW (250°)5.8 mphClear
1:55 PM37.4 °F22.1 °F54 %30.16 in10.0 miWest (260°)6.9 mphClear
2:15 PM38.1 °F23.4 °F55 %30.16 in10.0 miSW (230°)10.4 mphClear
2:35 PM38.1 °F23.4 °F55 %30.16 in10.0 miWest (270°)6.9 mphClear
2:55 PM38.3 °F23.9 °F56 %30.15 in10.0 miWest (270°)8.1 mphClear
3:15 PM39.2 °F24.8 °F56 %30.15 in10.0 miWSW (250°)5.8 mphClear
3:35 PM38.3 °F24.8 °F58 %30.15 in10.0 miWest (260°)9.2 mphClear
3:55 PM37.6 °F24.4 °F59 %30.15 in10.0 miWest (260°)5.8 mphClear
4:15 PM37.4 °F25.0 °F61 %30.15 in10.0 miWest (260°)8.1 mphClear
4:35 PM36.9 °F25.0 °F62 %30.14 in10.0 miWSW (250°)8.1 mphClear
4:55 PM36.0 °F25.9 °F67 %30.15 in10.0 miWest (260°)5.8 mphClear
5:15 PM34.5 °F26.8 °F73 %30.15 in10.0 miWest (280°)4.6 mphClear
5:35 PM33.8 °F26.6 °F75 %30.15 in10.0 miCalmClear
5:55 PM33.8 °F24.8 °F70 %30.15 in10.0 miCalmClear
6:15 PM32.7 °F26.4 °F78 %30.16 in10.0 miWSW (250°)3.5 mphClear
6:35 PM32.0 °F26.6 °F80 %30.17 in10.0 miWest (280°)4.6 mphClear
6:55 PM32.2 °F26.6 °F80 %30.18 in10.0 miWest (280°)4.6 mphClear
7:15 PM32.4 °F26.1 °F78 %30.18 in10.0 miWest (280°)5.8 mphClear
7:35 PM33.4 °F25.3 °F72 %30.18 in10.0 miWNW (290°)6.9 mphClear
7:55 PM33.3 °F25.0 °F72 %30.19 in10.0 miWNW (300°)8.1 mphClear
8:15 PM33.8 °F24.8 °F70 %30.20 in10.0 miWNW (300°)10.4 mphClear
8:35 PM35.1 °F24.6 °F66 %30.20 in10.0 miWNW (290°)10.4 mphClear
8:55 PM34.9 °F24.6 °F66 %30.20 in10.0 miWNW (300°)10.4 mphClear
9:15 PM34.7 °F24.4 °F66 %30.22 in10.0 miNW (310°)10.4 mphClear
9:35 PM33.8 °F24.6 °F69 %30.23 in10.0 miNW (320°)10.4 mphClear
9:55 PM33.8 °F22.1 °F62 %30.24 in10.0 miNW (320°)15.0 mph23.0 mphClear
10:15 PM32.5 °F22.8 °F67 %30.25 in10.0 miNNW (330°)10.4 mphClear
10:35 PM32.0 °F23.0 °F69 %30.26 in10.0 miNNW (340°)12.7 mph18.4 mphClear
10:55 PM31.1 °F21.7 °F68 %30.28 in10.0 miNNW (330°)16.1 mph23.0 mphClear
11:15 PM30.4 °F20.3 °F66 %30.29 in10.0 miNNW (330°)17.3 mph24.2 mphClear
11:35 PM30.0 °F19.0 °F64 %30.30 in10.0 miNNW (330°)18.4 mphClear
11:55 PM29.3 °F19.6 °F67 %30.30 in10.0 miNNW (340°)19.6 mphClear
Hourly data recorded from KSLO, located miles away from Odin, Illinois







STORIES FROM OUR PARTNERS